Regional Weather Roundup
Issued by NWS State College, PA

Home | Current Version | Previous Version | Graphics & Text | Print | Product List | Glossary Off
Versions: 1 2 3 4 5 6 7 8 9 10 11 12 13 14 15 16 17 18 19 20 21 22 23 24 25 26 27 28 29 30 31 32 33 34 35 36 37 38 39 40 41 42 43 44 45 46 47 48 49 50

000
ASUS41 KCTP 040003
RWRCTP

REGIONAL WEATHER ROUNDUP
NATIONAL WEATHER SERVICE STATE COLLEGE PA
700 PM EST TUE MAR 03 2015

Note: "fair" indicates few or no clouds below 12,000 feet with no
significant weather and/or obstructions to visibility.

* = STATION THAT DOES NOT REPORT PRECIPITATION /E.G. RAIN...SNOW...ETC/
    THUNDER OR FOG.

PAZ002>004-007>009-013>016-020>023-029>032-040100-
WESTERN PENNSYLVANIA

CITY           SKY/WX    TMP DP  RH WIND       PRES   REMARKS
ERIE           CLOUDY    39  35  86 SW16G28   29.63R FOG
MEADVILLE      LGT RAIN  38  35  89 SW14G24   29.64R
FRANKLIN*      CLOUDY    36  32  87 CALM      29.68S
NEW CASTLE     MIX PCPN  36  36 100 CALM      29.70R FOG
BEAVER COUNTY  DRIZZLE   43  41  93 SW14G22   29.69S
BUTLER*        CLOUDY    37  36  93 SW7       29.72R
PITTSBURGH INT DRIZZLE   46  45  96 SW10      29.71S FOG
PITTSBURGH     LGT RAIN  42  39  89 S9        29.71R
INDIANA*       CLOUDY    36  36 100 E5        29.76F FOG
LATROBE        LGT RAIN  48  48 100 SW12G21   29.74S FOG
WASHINGTON CO* CLOUDY    48  46  93 SW12G20   29.74S
$$

PAZ004>006-010>012-017>019-024>028-033>037-041-042-045-046-049>053-040100-
CENTRAL PENNSYLVANIA

CITY           SKY/WX    TMP DP  RH WIND       PRES   REMARKS
BRADFORD       FRZ RAIN  29  26  89 S12G20    29.64R FOG
DUBOIS         FRZ RAIN  33  32  96 S8G17     29.69F FOG
CLEARFIELD     FRZ RAIN  29  27  92 E3        29.77F FOG
JOHNSTOWN      HVY RAIN  34  33  96 S10G21    29.73F FOG
ALTOONA        FRZ RAIN  30  26  85 S13       29.82F FOG
STATE COLLEGE  SLEET     27  23  86 S9        29.84F FOG
WILLIAMSPORT   SLEET     26  20  77 E10G20    29.91F
SELINSGROVE    MIX PCPN  27  24  89 S8        29.94F FOG
FT INDIANTOWN  FRZ RAIN  27  25  92 S5        29.99F FOG
CAPITAL CITY   CLOUDY    29  25  85 SE9       29.99F
HARRISBURG     CLOUDY    30  25  81 SE14      29.99F
YORK           CLOUDY    30  25  81 VRB7      29.99F
$$

PAZ038>040-043-044-047-048-054-055-060>062-067>071-040100-
EASTERN PENNSYLVANIA

CITY           SKY/WX    TMP DP  RH WIND       PRES   REMARKS
SCRANTON       MIX PCPN  26  19  74 S10G20    29.91F
MOUNT POCONO   LGT SNOW  21  17  84 S12G22    29.88F VSB 1   WCI   9
ALLENTOWN      SLEET     27  23  85 S7        30.02F FOG
QUAKERTOWN*    CLOUDY    27  25  93 S3        30.03F
READING        FRZ RAIN  27  24  89 SE7       30.02F
LANCASTER      MIX PCPN  27  26  96 S8        30.01F FOG
COATESVILLE    LGT SNOW  30  30 100 S9        30.01F
POTTSTOWN      MIX PCPN  27  27 100 CALM      30.04F FOG
BLUE BELL      CLOUDY    32  32 100 SE6       30.05F
DOYLESTOWN     MIX PCPN  26  26 100 SE9       30.04F FOG
WILLOW GROVE   NOT AVBL
NORTH PHILA    FRZ RAIN  32  28  85 S7        30.10F FOG
PHILADELPHIA   FRZ RAIN  32  29  88 SE7       30.10F FOG
$$



USA.gov is the U.S. government's official web portal to all federal, state and local government web resources and services.